EW1948 Weather Reports


time (UTC)temp
C
wind
direction
speed
KPH
gust
KPH
rain 1hr
cm
rain 24hr
cm
rain mn
cm
humidity
%
barometer
mb
20260906135513 26 338 3.2 6.4 0.00 0.00 0.00 79 1016.4
20260906134514 25 90 3.2 8.0 0.00 0.00 0.00 81 1016.4
20260906133514 25 90 3.2 6.4 0.00 0.00 0.00 82 1016.5
20260906132515 25 338 1.6 6.4 0.00 0.00 0.00 83 1016.6
20260906131516 25 338 1.6 6.4 0.00 0.00 0.00 83 1016.5
20260906130514 24 338 1.6 8.0 0.00 0.00 0.00 84 1016.4
20260906125515 24 315 3.2 8.0 0.00 0.00 0.00 85 1016.3
20260906124536 24 293 1.6 4.8 0.00 0.00 0.00 86 1016.2
20260906123515 23 315 3.2 6.4 0.00 0.00 0.00 87 1016.2
20260906122515 23 338 1.6 4.8 0.00 0.00 0.00 87 1015.9
20260906121515 23 0 1.6 4.8 0.00 0.00 0.00 87 1015.8
20260906120515 23 23 1.6 3.2 0.00 0.00 0.00 87 1015.7
20260906115536 23 0 1.6 6.4 0.00 0.00 0.00 87 1015.8
20260906114535 23 0 1.6 3.2 0.00 0.00 0.00 87 1015.8
20260906113515 23 0 1.6 4.8 0.00 0.00 0.00 87 1015.6
20260906112515 23 0.0 1.6 0.00 0.00 0.00 87 1015.4
20260906111515 24 0.0 1.6 0.00 0.00 0.00 86 1015.5
20260906110516 24 0.0 1.6 0.00 0.00 0.00 86 1015.5
20260906105515 24 0.0 1.6 0.00 0.00 0.00 86 1015.3
20260906104515 24 0.0 1.6 0.00 0.00 0.00 85 1015.3
20260906103515 25 0.0 1.6 0.00 0.00 0.00 85 1015.3
20260906102515 25 0.0 3.2 0.00 0.00 0.00 84 1015.1
20260906101515 25 0.0 3.2 0.00 0.00 0.00 84 1015.1
20260906100535 25 0.0 3.2 0.00 0.00 0.00 83 1015.1
20260906095515 25 45 1.6 4.8 0.00 0.00 0.00 83 1015.0
20260906094515 25 68 1.6 4.8 0.00 0.00 0.00 83 1014.9
20260906093535 25 338 1.6 9.7 0.00 0.00 0.00 83 1014.8
20260906092515 25 270 1.6 9.7 0.00 0.00 0.00 83 1014.7
20260906091515 25 90 1.6 3.2 0.00 0.00 0.00 84 1014.6
20260906090515 25 0 1.6 3.2 0.00 0.00 0.00 84 1014.5
20260906085515 25 113 1.6 4.8 0.00 0.00 0.00 83 1014.4
20260906084515 26 68 1.6 4.8 0.00 0.00 0.00 83 1014.4
20260906083515 26 90 1.6 4.8 0.00 0.00 0.00 82 1014.4
20260906082515 26 90 1.6 8.0 0.00 0.00 0.00 82 1014.6
20260906081515 26 0.0 3.2 0.00 0.00 0.00 85 1014.5
20260906080515 26 68 1.6 4.8 0.00 0.00 0.00 85 1014.5
20260906075515 26 338 1.6 4.8 0.00 0.00 0.00 85 1014.5
20260906074535 26 0.0 3.2 0.00 0.00 0.00 85 1014.4
20260906073515 26 45 1.6 6.4 0.00 0.00 0.00 84 1014.3
20260906072515 27 0 1.6 4.8 0.00 0.00 0.00 84 1014.4
20260906071515 27 68 1.6 8.0 0.00 0.00 0.00 83 1014.3
20260906070515 27 113 1.6 4.8 0.00 0.00 0.00 82 1014.4
20260906065515 27 0 1.6 4.8 0.00 0.00 0.00 81 1014.5
20260906064515 27 45 1.6 4.8 0.00 0.00 0.00 80 1014.5
20260906063515 28 23 1.6 6.4 0.00 0.00 0.00 80 1014.7
20260906062515 28 90 1.6 4.8 0.00 0.00 0.00 79 1014.5
20260906061515 28 158 1.6 3.2 0.00 0.00 0.00 78 1014.7
20260906060535 28 338 1.6 6.4 0.00 0.00 0.00 77 1014.7
20260906055515 28 23 1.6 4.8 0.00 0.00 0.00 76 1014.8
20260906054515 28 0 1.6 4.8 0.00 0.00 0.00 76 1014.7
20260906053515 28 0.0 3.2 0.00 0.00 0.00 75 1014.6
20260906052515 29 0.0 3.2 0.00 0.00 0.00 74 1014.6
20260906051515 29 0.0 3.2 0.00 0.00 0.00 73 1014.5
20260906050515 29 0.0 6.4 0.00 0.00 0.00 72 1014.5
20260906045515 30 23 1.6 3.2 0.00 0.00 0.00 72 1014.4
20260906044535 30 23 1.6 3.2 0.00 0.00 0.00 71 1014.4
20260906043535 30 23 1.6 3.2 0.00 0.00 0.00 70 1014.3
20260906042515 30 0.0 4.8 0.00 0.00 0.00 69 1014.2
20260906041515 30 23 1.6 4.8 0.00 0.00 0.00 69 1014.2
20260906040515 30 45 1.6 3.2 0.00 0.00 0.00 68 1014.2
20260906035515 30 0 1.6 6.4 0.00 0.00 0.00 67 1013.9
20260906034515 30 0 1.6 4.8 0.00 0.00 0.00 67 1013.9
20260906033515 30 45 1.6 4.8 0.00 0.00 0.00 68 1013.8
20260906032515 29 0 1.6 3.2 0.00 0.00 0.00 68 1013.7
20260906031515 29 0.0 3.2 0.00 0.00 0.00 68 1013.6
20260906030515 29 0.0 0.0 0.00 0.00 0.00 68 1013.5
20260906025515 29 0.0 0.0 0.00 0.00 0.00 66 1013.4
20260906024515 29 0.0 0.0 0.00 0.00 0.00 66 1013.3
20260906023535 30 0.0 0.0 0.00 0.00 0.00 64 1013.2
20260906022555 30 0.0 0.0 0.00 0.00 0.00 64 1013.0
20260906021516 30 0.0 3.2 0.00 0.00 0.00 62 1012.9
20260906020515 31 0.0 0.0 0.00 0.00 0.00 61 1012.8
20260906015515 31 0.0 0.0 0.00 0.00 0.00 59 1012.6
20260906014515 31 0.0 0.0 0.00 0.00 0.00 59 1012.5
20260906013515 32 0.0 3.2 0.00 0.00 0.00 57 1012.4
20260906012515 32 0.0 3.2 0.00 0.00 0.00 55 1012.3
20260906011515 32 0.0 1.6 0.00 0.00 0.00 54 1012.2
20260906010515 32 0 1.6 3.2 0.00 0.00 0.00 53 1012.1
20260906005515 33 0.0 3.2 0.00 0.00 0.00 51 1012.0
20260906004515 34 0.0 1.6 0.00 0.00 0.00 49 1011.9
20260906003515 34 0 1.6 4.8 0.00 0.00 0.00 48 1011.8
20260906002515 35 0 1.6 4.8 0.00 0.00 0.00 48 1011.8
20260906001515 35 0 3.2 8.0 0.00 0.00 0.00 46 1011.9
20260906000515 36 0.0 3.2 0.00 0.00 0.00 45 1011.8
20260905235514 36 0 1.6 3.2 0.00 0.00 0.00 45 1011.7
20260905234514 36 315 1.6 6.4 0.00 0.00 0.00 44 1011.9
20260905233515 36 0 3.2 6.4 0.00 0.00 0.00 42 1012.0
20260905232515 37 338 3.2 9.7 0.00 0.00 0.00 42 1012.1
20260905231515 37 0 1.6 8.0 0.00 0.00 0.00 42 1012.0
20260905230515 37 315 3.2 8.0 0.00 0.00 0.00 42 1012.1
20260905225515 37 0 3.2 9.7 0.00 0.00 0.00 42 1012.0
20260905224515 37 0 3.2 8.0 0.00 0.00 0.00 43 1012.0
20260905223515 37 270 3.2 8.0 0.00 0.00 0.00 43 1012.0
20260905222515 37 338 3.2 8.0 0.00 0.00 0.00 42 1011.9
20260905221515 37 293 3.2 8.0 0.00 0.00 0.00 42 1012.0
20260905220515 37 315 3.2 9.7 0.00 0.00 0.00 41 1012.1
20260905215515 37 315 4.8 9.7 0.00 0.00 0.00 41 1012.1
20260905214514 37 315 3.2 6.4 0.00 0.00 0.00 40 1012.1
20260905213514 37 135 1.6 4.8 0.00 0.00 0.00 40 1012.0
20260905212514 37 0 3.2 6.4 0.00 0.00 0.00 42 1011.9
20260905211514 36 293 3.2 9.7 0.00 0.00 0.00 44 1012.0
20260905210515 36 293 4.8 8.0 0.00 0.00 0.00 44 1012.1
20260905205514 36 203 4.8 9.7 0.00 0.00 0.00 43 1012.2
20260905204514 37 0 3.2 9.7 0.00 0.00 0.00 40 1012.5
20260905203514 37 0 4.8 11.3 0.00 0.00 0.00 38 1012.3
20260905202514 39 45 1.6 4.8 0.00 0.00 0.00 35 1012.4
20260905201514 40 270 4.8 9.7 0.00 0.00 0.00 34 1012.5
20260905200514 40 0 4.8 9.7 0.00 0.00 0.00 34 1012.6
20260905195515 40 0 4.8 11.3 0.00 0.00 0.00 35 1012.7
20260905194514 40 338 3.2 11.3 0.00 0.00 0.00 36 1012.8
20260905193534 39 293 4.8 12.9 0.00 0.00 0.00 35 1013.1
20260905192514 38 293 3.2 8.0 0.00 0.00 0.00 35 1013.1
20260905191514 40 293 4.8 11.3 0.00 0.00 0.00 35 1013.2
20260905190514 40 338 4.8 8.0 0.00 0.00 0.00 37 1013.3
20260905185514 39 338 6.4 11.3 0.00 0.00 0.00 39 1013.4
20260905184514 38 0 3.2 8.0 0.00 0.00 0.00 39 1013.5
20260905183514 39 270 4.8 12.9 0.00 0.00 0.00 38 1013.6
20260905182514 39 23 3.2 6.4 0.00 0.00 0.00 39 1013.7
20260905181514 38 315 3.2 8.0 0.00 0.00 0.00 40 1013.8
20260905180534 38 248 3.2 8.0 0.00 0.00 0.00 41 1013.8
20260905175514 37 248 4.8 11.3 0.00 0.00 0.00 43 1013.9
20260905174514 37 23 4.8 14.5 0.00 0.00 0.00 43 1014.0
20260905173514 37 315 3.2 9.7 0.00 0.00 0.00 44 1014.1
20260905172514 37 270 3.2 8.0 0.00 0.00 0.00 45 1014.2
20260905171514 37 338 3.2 9.7 0.00 0.00 0.00 47 1014.4
20260905170514 36 315 3.2 8.0 0.00 0.00 0.00 48 1014.4
20260905165514 36 0 3.2 6.4 0.00 0.00 0.00 48 1014.7
20260905164514 36 293 3.2 8.0 0.00 0.00 0.00 50 1014.9
20260905163534 36 248 4.8 9.7 0.00 0.00 0.00 49 1015.0
20260905162514 35 315 3.2 8.0 0.00 0.00 0.00 51 1015.0
20260905161514 35 315 4.8 9.7 0.00 0.00 0.00 53 1015.0
20260905160514 35 0 4.8 14.5 0.00 0.00 0.00 52 1015.1
20260905155554 34 338 3.2 8.0 0.00 0.00 0.00 55 1015.1
20260905154514 33 0 3.2 9.7 0.00 0.00 0.00 56 1015.0
20260905153514 33 0 4.8 8.0 0.00 0.00 0.00 57 1015.1
20260905152514 33 0 4.8 8.0 0.00 0.00 0.00 58 1015.1
20260905151534 32 315 3.2 8.0 0.00 0.00 0.00 58 1015.1
20260905150514 32 315 3.2 8.0 0.00 0.00 0.00 58 1015.1
20260905145514 32 0 4.8 9.7 0.00 0.00 0.00 59 1015.1
20260905144514 31 338 4.8 9.7 0.00 0.00 0.00 60 1015.0
20260905143514 31 315 4.8 9.7 0.00 0.00 0.00 60 1015.0
20260905142514 31 315 3.2 11.3 0.00 0.00 0.00 61 1015.0
20260905141514 31 338 3.2 6.4 0.00 0.00 0.00 62 1015.0
20260905140514 30 338 1.6 6.4 0.00 0.00 0.00 64 1015.0